Epoch 2019 Feb. 26.0 TT = JDT 2458540.5 MPC
M 359.97577 (2000.0) P Q
n 0.00123000 Peri. 193.22290 -0.86054537 +0.46215777
a 86.2713581 Node 340.63824 +0.50602345 +0.82378858
e 0.9875184 Incl. 139.75753 +0.05832613 -0.32830255
P 801 H 22.7 G 0.15
From 72 observations 2019 Mar. 4-12.